Weather History for Squamish, BC

Change the Weather History Date:

Wednesday, September 5, 2012

  Actual Average Record
Temperature  
Mean Temperature 61 °F -  
Max Temperature 74 °F - - ()
Min Temperature 48 °F - - ()
Degree Days  
Heating Degree Days 4    
Growing Degree Days 11 (Base 50)    
Moisture  
Dew Point 52 °F    
Average Humidity 74    
Maximum Humidity 97    
Minimum Humidity 41    
Precipitation  
Precipitation 0.00 in - - ()
Sea Level Pressure  
Sea Level Pressure 30.01 in    
Wind  
Wind Speed 3 mph ()    
Max Wind Speed 9 mph    
Max Gust Speed -    
T = Trace of Precipitation, MM = Missing Value Source: Averaged Metar Reports

Daily Weather History Graph

Daily Weather History Graph

Search for Another Location

Airport:

Trip Planner

Search our weather history database for the weather conditions in past years. The results will help you decide how hot, cold, wet, or windy it might be!

Date:

Astronomy

Sep. 05, 2012 Rise Set
Actual Time 6:34 AM PDT 7:46 PM PDT
Civil Twilight 6:01 AM PDT 8:19 PM PDT
Nautical Twilight 5:21 AM PDT 8:59 PM PDT
Astronomical Twilight 4:38 AM PDT 9:41 PM PDT
Moon 9:42 PM PDT (9/5) 12:20 PM PDT (9/5)
Length of Visible Light 14h 17m
Length of Day
13h 11m
Waning Gibbous, 75% of the Moon is Illuminated
Sep 5
Waning Gibbous
Sep 8
Last Quarter
Sep 15
New
Sep 22
First Quarter
Sep 29
Full

Hourly Weather History & Observations

Time (PDT) Temp. Dew Point Humidity Pressure Visibility Wind Dir Wind Speed Gust Speed Precip Events Conditions
12:00 AM 54.5 °F 50.5 °F 86% 30.10 in - NNE 2.3 mph - N/A   Unknown
1:00 AM 53.4 °F 50.0 °F 88% 30.09 in - NE 3.5 mph - N/A   Unknown
2:00 AM 52 °F 49 °F 85% 30.09 in - NE 1.2 mph - -  
2:00 AM 51.8 °F 48.9 °F 90% 30.09 in - NE 1.2 mph - N/A   Unknown
3:00 AM 51.4 °F 49.6 °F 94% 30.09 in - NNE 2.3 mph - N/A   Unknown
4:00 AM 50.2 °F 47.7 °F 91% - - NE 2.3 mph - N/A   Unknown
5:00 AM 50 °F 49 °F 95% 30.08 in - NE 2.3 mph - -  
5:00 AM 49.8 °F 48.9 °F 97% 30.08 in - NE 2.3 mph - N/A   Unknown
6:00 AM 49.1 °F 48.4 °F 97% - - NNE 1.2 mph - N/A   Unknown
7:00 AM 48.9 °F 48.2 °F 97% 30.08 in - NNE 1.2 mph - N/A   Unknown
8:00 AM 52 °F 51 °F 95% 30.07 in - NE 1.2 mph - -  
8:00 AM 52.2 °F 50.9 °F 95% 30.07 in - NE 1.2 mph - N/A   Unknown
9:00 AM 55.9 °F 50.9 °F 83% 30.06 in - Calm Calm - N/A   Unknown
10:00 AM 61.7 °F 50.0 °F 65% - - WSW 2.3 mph - N/A   Unknown
11:00 AM 67 °F 49 °F 41%  in - South 2.3 mph - -  
11:00 AM 66.9 °F 48.9 °F 52% - - South 2.3 mph - N/A   Unknown
12:00 PM 69.6 °F 49.8 °F 49% 30.00 in - SSE 6.9 mph - N/A   Unknown
1:00 PM 70.0 °F 52.3 °F 53% 29.99 in - South 8.1 mph - N/A   Unknown
2:00 PM 72 °F 53 °F 41% 29.98 in - South 8.1 mph - -  
2:00 PM 72.1 °F 53.1 °F 51% 29.98 in - South 8.1 mph - N/A   Unknown
3:00 PM 73.0 °F 53.6 °F 50% 29.96 in - SSE 6.9 mph - N/A   Unknown
4:00 PM 73.2 °F 53.2 °F 49% 29.94 in - South 8.1 mph - N/A   Unknown
5:00 PM 72 °F 53 °F 41% 29.93 in - South 9.2 mph - -  
5:00 PM 71.6 °F 53.2 °F 52% 29.93 in - South 9.2 mph - N/A   Unknown
6:00 PM 70.7 °F 54.3 °F 56% 29.93 in - South 6.9 mph - N/A   Unknown
7:00 PM 67.8 °F 54.3 °F 62% 29.93 in - SSE 3.5 mph - N/A   Unknown
8:00 PM 63 °F 55 °F 68% 29.95 in - NE 1.2 mph - -  
8:00 PM 62.6 °F 55.0 °F 76% 29.95 in - NE 1.2 mph - N/A   Unknown
9:00 PM 59.9 °F 54.3 °F 82% 29.96 in - East 1.2 mph - N/A   Unknown
10:00 PM 57.7 °F 54.0 °F 87% 29.98 in - NE 2.3 mph - N/A   Unknown
11:00 PM 56 °F 55 °F 94% 29.99 in - North 2.3 mph - -  
11:00 PM 56.1 °F 54.7 °F 95% 29.99 in - North 2.3 mph - N/A   Unknown